Regional Weather Roundup
Issued by NWS Cleveland, OH

Home | Current Version | Previous Version | Graphics & Text | Print | Product List | Glossary On
Versions: 1 2 3 4 5 6 7 8 9 10 11 12 13 14 15 16 17 18 19 20 21 22 23 24 25 26 27 28 29 30 31 32 33 34 35 36 37 38 39 40 41 42 43 44 45 46 47 48 49 50
000
ASUS41 KCLE 271810
RWRCLE
OHIO REGIONAL WEATHER ROUNDUP
NATIONAL WEATHER SERVICE WILMINGTON, OH
200 PM EDT WED AUG 27 2014

NOTE: "FAIR" INDICATES FEW OR NO CLOUDS BELOW 12,000 FEET WITH NO
SIGNIFICANT WEATHER AND/OR OBSTRUCTIONS TO VISIBILITY.

OHZ001>008-015>018-024>027-034-035-043-044-271900-
   NORTHWEST OHIO

CITY           SKY/WX    TMP DP  RH WIND       PRES   REMARKS
DEFIANCE       SUNNY     79  65  62 VRB5      30.10F
FINDLAY        PTSUNNY   82  68  62 NW8       30.08F
TOLEDO EXPRESS SUNNY     78  63  59 W5        30.09F
TOLEDO METCALF MOSUNNY   79  65  62 E6        30.10F
LIMA           MOSUNNY   81  69  67 NW6       30.10S
$$

OHZ009>014-019>023-028>033-038-089-271900-
   NORTHEAST OHIO

CITY           SKY/WX    TMP DP  RH WIND       PRES   REMARKS
CLE-HOPKINS    PTSUNNY   74  66  76 N9        30.11F
CLE-LAKEFRONT  MOSUNNY   75  65  70 N13       30.09R
CUY CO. ARPT   PTSUNNY   77  68  73 NE12      30.10F
LORAIN-ELYRIA  PTSUNNY   78  67  68 NE9       30.10R
ASHTABULA      PTSUNNY   73  62  68 VRB5      30.10S
AKRON-CANTON   CLOUDY    81  67  62 W7        30.08F
WOOSTER        MOSUNNY   82  69  64 NW7       30.08F
MANSFIELD      MOSUNNY   82  67  60 VRB7      30.09F
YOUNGSTOWN     PTSUNNY   81  67  62 VRB3      30.07F
$$

OHZ042-051>053-060>062-070>072-077>081-271900-
  SOUTHWEST OHIO

CITY           SKY/WX    TMP DP  RH WIND       PRES   REMARKS
CINC-COVINGTON MOSUNNY   89  70  53 W8        30.08F HX  94
CINC-LUNKEN    MOSUNNY   90  73  57 VRB6      30.06F HX  98
HAMILTON       MOSUNNY   88  72  58 CALM      30.08F HX  94
DAYTON         PTSUNNY   87  71  58 N6        30.10F HX  93
WRIGHT-PAT AFB SUNNY     87  72  61 VRB2      30.08F HX  93
DAYTON GENERAL PTSUNNY   86  72  62 VRB6      30.08F HX  92
WILMINGTON     SUNNY     85  72  65 VRB3      30.09F HX  91
$$

OHZ036-037-039>041-045>050-054>059-063>069-073>076-082>088-271900-
  CENTRAL AND SOUTHEAST OHIO

CITY           SKY/WX    TMP DP  RH WIND       PRES   REMARKS
COLUMBUS       MOSUNNY   89  69  51 W8        30.06F HX  93
OSU AIRPORT    SUNNY     85  69  58 NW6       30.07F
BOLTON FIELD   MOSUNNY   84  73  70 NW3       30.08F HX  91
RICKENBACK AFB SUNNY     87  66  49 W6        30.06F
NEWARK         CLOUDY    84  71  65 VRB6      30.06F
MARION         MOSUNNY   81  68  64 VRB5      30.08F
LANCASTER      MOSUNNY   86  70  58 VRB5      30.07F HX  90
ZANESVILLE     MOSUNNY   84  71  65 SW6       30.07F
NEW PHILLY     PTSUNNY   83  71  67 NW7       30.06F
$$



USA.gov is the U.S. government's official web portal to all federal, state and local government web resources and services.